Mackinac Island, MI

1:43 AM EDT on June 23, 2017 (GMT -0400)
Mackinac Island

Weather History for KMCD - April, 2014

Change the Weather History Date:

Friday, April 4, 2014

  Actual Average Record
Temperature  
Mean Temperature 29 °F -  
Max Temperature 33 °F 39 °F 59 °F (1981)
Min Temperature 24 °F 25 °F 5 °F (1975)
Degree Days  
Heating Degree Days 36    
Moisture  
Dew Point 29 °F    
Average Humidity 92    
Maximum Humidity 100    
Minimum Humidity 79    
Precipitation  
Precipitation 0.39 in - - ()
Sea Level Pressure  
Sea Level Pressure 29.59 in    
Wind  
Wind Speed 13 mph (ENE)    
Max Wind Speed 21 mph    
Max Gust Speed 33 mph    
Visibility 6 miles    
Events Snow    
Averages and records for this station are not official NWS values.
T = Trace of Precipitation, MM = Missing Value Source: NWS Daily Summary

Daily Weather History Graph

Daily Weather History Graph

Search for Another Location

Airport or City:

Trip Planner

Search our weather history database for the weather conditions in past years. The results will help you decide how hot, cold, wet, or windy it might be!

Date:

Astronomy

Apr. 04, 2014 Rise Set
Actual Time 7:12 AM EDT 8:10 PM EDT
Civil Twilight 6:42 AM EDT 8:41 PM EDT
Nautical Twilight 6:06 AM EDT 9:17 PM EDT
Astronomical Twilight 5:28 AM EDT 9:56 PM EDT
Moon 10:17 AM EDT (4/4) 12:39 AM EDT (4/4)
Length of Visible Light 13h 58m
Length of Day
12h 58m
Waxing Crescent, 25% of the Moon is Illuminated
Apr 4
Waxing Crescent
Apr 7
First Quarter
Apr 15
Full
Apr 22
Last Quarter
Apr 29
New

Hourly Weather History & Observations

Time (EDT) Temp. Windchill Dew Point Humidity Pressure Visibility Wind Dir Wind Speed Gust Speed Precip Events Conditions
12:16 AM 31.8 °F 23.3 °F 29.1 °F 90% 29.95 in 10.0 mi East 10.4 mph 16.1 mph N/A   Overcast
12:36 AM 32.0 °F 23.6 °F 28.6 °F 87% 29.94 in 10.0 mi East 10.4 mph 18.4 mph N/A   Overcast
12:56 AM 32.0 °F 22.5 °F 28.4 °F 87% 29.91 in 10.0 mi East 12.7 mph 17.3 mph N/A   Overcast
1:16 AM 32.4 °F 24.0 °F 27.9 °F 83% 29.92 in 10.0 mi East 10.4 mph 19.6 mph N/A   Overcast
1:36 AM 32.5 °F 23.2 °F 27.5 °F 82% 29.90 in 10.0 mi East 12.7 mph 18.4 mph N/A   Overcast
1:56 AM 33.1 °F 25.5 °F 27.7 °F 81% 29.88 in 10.0 mi East 9.2 mph 17.3 mph N/A   Overcast
2:16 AM 33.1 °F 25.5 °F 28.2 °F 82% 29.86 in 10.0 mi East 9.2 mph 18.4 mph N/A   Overcast
2:36 AM 33.3 °F 24.1 °F 28.4 °F 82% 29.85 in 10.0 mi East 12.7 mph 20.7 mph N/A   Overcast
2:56 AM 33.4 °F 23.5 °F 27.7 °F 79% 29.82 in 10.0 mi East 15.0 mph 25.3 mph N/A   Overcast
3:16 AM 33.4 °F 23.1 °F 27.5 °F 79% 29.81 in 10.0 mi East 16.1 mph 23.0 mph N/A   Overcast
3:36 AM 33.3 °F 22.5 °F 27.5 °F 79% 29.80 in 10.0 mi East 17.3 mph 25.3 mph N/A   Overcast
3:57 AM 33.1 °F 23.4 °F 27.5 °F 80% 29.78 in 10.0 mi East 13.8 mph 24.2 mph N/A   Overcast
4:16 AM 33.1 °F 23.4 °F 27.5 °F 80% 29.77 in 10.0 mi East 13.8 mph 26.5 mph N/A   Overcast
4:36 AM 32.9 °F 23.2 °F 27.5 °F 81% 29.77 in 10.0 mi East 13.8 mph 25.3 mph N/A   Overcast
4:56 AM 32.9 °F 24.7 °F 27.7 °F 81% 29.77 in 10.0 mi East 10.4 mph 23.0 mph N/A   Overcast
5:16 AM 33.1 °F 23.9 °F 27.9 °F 81% 29.74 in 10.0 mi East 12.7 mph 24.2 mph N/A   Overcast
5:36 AM 33.4 °F 23.9 °F 27.9 °F 80% 29.73 in 10.0 mi East 13.8 mph 32.2 mph N/A   Overcast
5:56 AM 33.3 °F 22.8 °F 28.2 °F 82% 29.71 in 10.0 mi East 16.1 mph 29.9 mph N/A   Overcast
6:16 AM 33.3 °F 22.5 °F 28.0 °F 81% 29.71 in 10.0 mi East 17.3 mph 32.2 mph N/A   Overcast
6:36 AM 33.3 °F 22.5 °F 27.5 °F 79% 29.69 in 10.0 mi East 17.3 mph 33.4 mph N/A   Overcast
6:56 AM 33.1 °F 21.2 °F 27.7 °F 81% 29.68 in 10.0 mi East 20.7 mph 32.2 mph N/A   Overcast
7:16 AM 32.9 °F 21.6 °F 27.9 °F 82% 29.65 in 10.0 mi East 18.4 mph 31.1 mph N/A   Overcast
7:36 AM 32.9 °F 21.6 °F 27.7 °F 81% 29.64 in 10.0 mi East 18.4 mph 28.8 mph N/A   Overcast
7:56 AM 32.9 °F 22.0 °F 27.5 °F 81% 29.65 in 10.0 mi East 17.3 mph 28.8 mph N/A   Overcast
8:16 AM 32.4 °F 22.5 °F 28.2 °F 85% 29.63 in 4.0 mi East 13.8 mph 27.6 mph N/A   Overcast
8:36 AM 32.4 °F 21.3 °F 27.7 °F 83% 29.62 in 10.0 mi East 17.3 mph 29.9 mph N/A   Overcast
8:56 AM 32.0 °F 21.6 °F 28.4 °F 87% 29.59 in 10.0 mi East 15.0 mph 29.9 mph N/A   Overcast
9:16 AM 32.2 °F 21.1 °F 28.0 °F 85% 29.58 in 10.0 mi East 17.3 mph 32.2 mph N/A   Overcast
9:37 AM 32.2 °F 21.4 °F 27.9 °F 84% 29.58 in 10.0 mi ESE 16.1 mph 32.2 mph N/A   Overcast
9:56 AM 32.0 °F 20.5 °F 27.9 °F 85% 29.56 in 7.0 mi East 18.4 mph 31.1 mph N/A   Overcast
10:16 AM 32.0 °F 20.8 °F 29.1 °F 89% 29.56 in 2.5 mi ESE 17.3 mph 27.6 mph 0.02 in Snow Light Snow
10:37 AM 32.0 °F 21.2 °F 29.5 °F 90% 29.54 in 4.0 mi East 16.1 mph 28.8 mph 0.03 in Snow Light Snow
10:56 AM 31.8 °F 20.2 °F 30.2 °F 94% 29.51 in 4.0 mi East 18.4 mph 33.4 mph 0.05 in   Overcast
11:16 AM 31.6 °F 20.0 °F 30.2 °F 94% 29.52 in 7.0 mi East 18.4 mph 31.1 mph N/A   Overcast
11:37 AM 31.6 °F 22.6 °F 30.7 °F 96% 29.55 in 2.0 mi East 11.5 mph 23.0 mph 0.12 in Snow Light Snow
11:56 AM 31.8 °F 22.3 °F 31.1 °F 97% 29.54 in 2.5 mi East 12.7 mph 23.0 mph 0.15 in Snow Light Snow
12:17 PM 31.6 °F 22.6 °F 31.1 °F 98% 29.54 in 3.0 mi East 11.5 mph 21.9 mph N/A Snow Light Snow
12:37 PM 31.5 °F 22.9 °F 31.1 °F 99% 29.54 in 1.8 mi East 10.4 mph 20.7 mph 0.02 in Snow Light Snow
12:56 PM 31.5 °F 21.8 °F 31.1 °F 99% 29.52 in 0.2 mi East 12.7 mph 23.0 mph 0.02 in Snow Snow
1:17 PM 31.3 °F 22.1 °F 31.1 °F 99% 29.53 in 0.8 mi East 11.5 mph 24.2 mph 0.01 in Snow Light Snow
1:36 PM 31.3 °F 21.6 °F 31.1 °F 99% 29.51 in 0.5 mi East 12.7 mph 21.9 mph 0.02 in Snow Snow
1:56 PM 31.5 °F 20.9 °F 31.5 °F 100% 29.47 in 0.5 mi East 15.0 mph 23.0 mph 0.02 in Snow Light Snow
2:17 PM 31.5 °F 19.8 °F 31.5 °F 100% 29.45 in 4.0 mi East 18.4 mph 21.9 mph N/A Snow Light Snow
2:57 PM 31.6 °F 21.6 °F 31.6 °F 100% 29.43 in 4.0 mi East 13.8 mph 20.7 mph 0.02 in Snow Light Snow
3:17 PM 31.6 °F 21.2 °F 31.6 °F 100% 29.39 in 4.0 mi East 15.0 mph 25.3 mph 0.02 in Snow Light Snow
3:36 PM 31.8 °F 21.8 °F 31.8 °F 100% 29.36 in 4.0 mi East 13.8 mph 23.0 mph 0.03 in Snow Light Snow
4:17 PM 31.6 °F 23.1 °F 31.6 °F 100% 29.34 in 10.0 mi East 10.4 mph 26.5 mph N/A   Overcast
4:36 PM 31.8 °F 23.9 °F 31.8 °F 100% 29.37 in 10.0 mi ENE 9.2 mph - N/A   Overcast
4:57 PM 31.8 °F 28.5 °F 31.8 °F 100% 29.41 in 10.0 mi WNW 3.5 mph - N/A   Overcast
5:16 PM 32.0 °F - 32.0 °F 100% 29.41 in 10.0 mi Calm Calm - N/A   Overcast
5:36 PM 32.0 °F 28.7 °F 32.0 °F 100% 29.40 in 0.8 mi NNW 3.5 mph - 0.01 in Snow Light Snow
5:57 PM 32.0 °F 26.4 °F 32.0 °F 100% 29.39 in 0.8 mi NNW 5.8 mph - 0.02 in Snow Light Snow
6:16 PM 32.0 °F 25.6 °F 32.0 °F 100% 29.40 in 0.8 mi North 6.9 mph - 0.02 in Snow Light Snow
6:36 PM 32.0 °F 24.2 °F 32.0 °F 100% 29.40 in 1.0 mi North 9.2 mph - 0.03 in Snow Light Snow
6:57 PM 31.8 °F 23.9 °F 31.8 °F 100% 29.41 in 1.0 mi North 9.2 mph - 0.04 in Snow Light Snow
7:16 PM 32.0 °F 24.2 °F 32.0 °F 100% 29.41 in 1.2 mi North 9.2 mph 17.3 mph 0.01 in Snow Light Snow
7:37 PM 32.0 °F 23.6 °F 32.0 °F 100% 29.42 in 1.0 mi NNW 10.4 mph 17.3 mph 0.01 in Snow Light Snow
7:57 PM 31.6 °F 23.7 °F 31.6 °F 100% 29.43 in 1.2 mi NNW 9.2 mph 20.7 mph 0.01 in Snow Light Snow
8:16 PM 31.1 °F 21.9 °F 31.1 °F 100% 29.44 in 0.8 mi NNW 11.5 mph 19.6 mph 0.01 in Snow Light Snow
8:37 PM 30.6 °F 21.2 °F 30.6 °F 100% 29.46 in 2.5 mi NNW 11.5 mph 17.3 mph 0.01 in Snow Light Snow
8:57 PM 30.0 °F 20.5 °F 30.0 °F 100% 29.48 in 2.0 mi NNW 11.5 mph 19.6 mph 0.02 in Snow Light Snow
9:16 PM 29.7 °F 20.1 °F 29.7 °F 100% 29.49 in 3.0 mi NNW 11.5 mph 20.7 mph N/A Snow Light Snow
9:37 PM 29.3 °F 19.6 °F 29.3 °F 100% 29.50 in 2.5 mi NNW 11.5 mph 18.4 mph 0.01 in Snow Light Snow
9:57 PM 28.9 °F 19.2 °F 28.9 °F 100% 29.51 in 2.5 mi NNW 11.5 mph 17.3 mph 0.01 in Snow Light Snow
10:16 PM 28.6 °F 17.2 °F 28.6 °F 100% 29.52 in 2.5 mi NNW 15.0 mph 20.7 mph N/A Snow Light Snow
10:37 PM 28.4 °F 18.0 °F 28.2 °F 99% 29.53 in 3.0 mi NNW 12.7 mph 21.9 mph N/A Snow Light Snow
10:56 PM 27.9 °F 17.8 °F 27.5 °F 99% 29.54 in 3.0 mi NNW 11.5 mph 23.0 mph N/A Snow Light Snow
11:16 PM 25.9 °F 14.8 °F 25.5 °F 99% 29.56 in 2.0 mi NNW 12.7 mph 23.0 mph N/A Snow Light Snow
11:37 PM 25.0 °F 12.2 °F 24.3 °F 97% 29.58 in 7.0 mi NW 16.1 mph 27.6 mph N/A   Overcast
11:56 PM 24.3 °F 13.9 °F 23.5 °F 97% 29.59 in 10.0 mi NW 10.4 mph 23.0 mph N/A   Overcast